Flag for Belgium Weather past 2 weeks in Charleroi, Belgium

Now
64 °F

Scattered clouds.


Feels Like: 64 °F
Forecast: 46 / 67 °F
Wind: 10 mph from Southeast

Location: Charleroi / Gosselies


UV Index: 0 (Low)

Visibility: N/A


Pressure: 29.62 "Hg

Humidity: 49%

Dew point: 45 °F

Location of CharleroiLocation

Historic Weather in Charleroi

°F

Charleroi temperature yesterday

Maximum temperature yesterday: 59 °F (at 5:20 PM)
Minimum temperature yesterday: 39 °F (at 6:20 AM)
Average temperature yesterday: 49 °F

Past Weeks' High & Low Weather Summary

 TemperatureHumidityPressure
High70 °F (Apr 7, 3:20 PM)100% (Apr 9, 7:20 AM)30.42 "Hg (Apr 9, 7:20 AM)
Low32 °F (Apr 16, 6:20 AM)27% (Apr 17, 4:50 PM)29.62 "Hg (Apr 20, 4:50 PM)
Average51 °F69%30.11 "Hg
* Reported Apr 5 5:20 PM — Apr 20 5:20 PM, Charleroi, Weather by CustomWeather, © 2014

Note: Actual official high and low records may vary slightly from our data, if they occured in-between our weather recording intervals... More about our weather records

Advertising

Historic Weather Conditions — Data for Previous 24 hours

 ConditionsComfort  
Time TempWeatherWind HumidityBarometerVisibility
5:20 PM
Apr 20
64 °FScattered clouds.13 mph49%29.62 "HgN/A
4:50 PM63 °FScattered clouds.14 mph52%29.62 "HgN/A
4:20 PM64 °FScattered clouds.13 mph49%29.65 "HgN/A
3:50 PM64 °FScattered clouds.10 mph52%29.65 "HgN/A
3:20 PM64 °FScattered clouds.10 mph52%29.65 "HgN/A
2:50 PM63 °FScattered clouds.13 mph56%29.65 "HgN/A
2:20 PM61 °FPartly sunny.13 mph55%29.65 "HgN/A
1:50 PM63 °FPassing clouds.15 mph49%29.65 "HgN/A
1:20 PM63 °FScattered clouds.14 mph52%29.65 "HgN/A
12:50 PM63 °FScattered clouds.14 mph52%29.65 "HgN/A
12:20 PM63 °FScattered clouds.13 mph52%29.65 "HgN/A
11:50 AM63 °FScattered clouds.9 mph59%29.68 "HgN/A
11:20 AM63 °FPassing clouds.13 mph59%29.68 "Hg6 mi
10:50 AM59 °FClear.10 mph68%29.68 "Hg5 mi
10:20 AM55 °FClear.9 mph72%29.71 "Hg4 mi
9:50 AM55 °FClear.13 mph72%29.71 "Hg4 mi
9:20 AM54 °FClear.13 mph77%29.71 "Hg4 mi
8:50 AM52 °FClear.12 mph82%29.71 "Hg4 mi
8:20 AM50 °FFog.10 mph88%29.71 "Hg3 mi
7:50 AM50 °FFog.10 mph88%29.71 "Hg3 mi
7:20 AM50 °FFog.12 mph82%29.71 "Hg2 mi
6:50 AM48 °FFog.13 mph87%29.74 "Hg3 mi
6:20 AM48 °FClear.10 mph87%29.74 "Hg4 mi
5:50 AM48 °FClear.10 mph87%29.74 "Hg4 mi
5:20 AM48 °FClear.9 mph87%29.74 "Hg4 mi
4:50 AM48 °FClear.12 mph87%29.77 "Hg4 mi
4:20 AM48 °FClear.14 mph87%29.77 "Hg10 mi
3:50 AM50 °FClear.14 mph82%29.77 "Hg10 mi
3:20 AM50 °FClear.14 mph82%29.77 "Hg10 mi
2:50 AM50 °FClear.12 mph82%29.80 "Hg10 mi
2:20 AM52 °FClear.12 mph77%29.80 "Hg10 mi
1:50 AM52 °FClear.14 mph77%29.80 "Hg10 mi
1:20 AM52 °FClear.14 mph77%29.83 "Hg10 mi
12:50 AM54 °FClear.14 mph72%29.83 "Hg10 mi
12:20 AM52 °FClear.12 mph72%29.83 "Hg10 mi
11:50 PM
Apr 19
52 °FClear.13 mph72%29.83 "Hg10 mi
11:20 PM54 °FClear.13 mph67%29.86 "Hg10 mi
10:50 PM55 °FClear.14 mph63%29.86 "Hg10 mi
10:20 PM55 °FClear.14 mph59%29.86 "Hg10 mi
9:50 PM55 °FClear.13 mph59%29.86 "Hg10 mi
9:20 PM54 °FPassing clouds.10 mph58%29.86 "HgN/A
8:50 PM54 °FPassing clouds.13 mph58%29.86 "HgN/A
8:20 PM55 °FSunny.12 mph55%29.86 "Hg10 mi
7:50 PM57 °FSunny.14 mph48%29.89 "Hg10 mi
7:20 PM57 °FSunny.16 mph48%29.89 "Hg10 mi
6:50 PM57 °FPassing clouds.18 mph44%29.89 "HgN/A
6:20 PM59 °FPassing clouds.20 mph45%29.89 "HgN/A
Weather by CustomWeather, © 2014

See weather overview